sat.trackr.live / text

‹ back to catalog

STARLINK-35203

NORAD 65498 · 2025-198G

PAYLOAD ACTIVE UNKNOWN

§ Identity

Operator
Country
US
Launch date
2025-09-05
Launch site
AFETR
Launch vehicle
Mass (kg)
RCS (m²)

Purposes: comms

External: N2YO · Heavens-Above · Gunter

§ Orbital elements

Epoch: 2026-09-20T21:25:40.328832Z

Period
93.85 min
Inclination
53.1592°
Eccentricity
0.0000819
Mean motion
15.34410323 rev/d
Perigee alt
462.1 km
Apogee alt
463.2 km
Semi-major
6,840.8 km
B*
8.1153e-4
RAAN
81.6724°
Arg perigee
74.9707°
Mean anomaly
285.1387°
Rev number
5,854

§ Raw data

STARLINK-352031 65498U 25198G   26263.89282788  .00027151  00000+0  81153-3 0  99942 65498  53.1592  81.6724 0000819  74.9707 285.1387 15.34410323 58541

JSON: /api/v1/satellites/65498 · /tle

For live sub-satellite position, see the globe view (requires WebGL).

§ Visibility from observer

Set your observer location to see the next 7 days of passes ≥ 10°. The values pass through the URL so the page stays shareable.

No JS? Fill the form by hand. The geolocation button needs JavaScript.